Regional Weather Roundup
Issued by NWS

Home | Current Version | Previous Version | Graphics & Text | Print | Product List | Glossary On
Versions: 1 2 3 4 5 6 7 8 9 10 11 12 13 14 15 16 17 18 19 20 21 22 23 24 25 26 27 28 29 30 31 32 33 34 35 36 37 38 39 40 41 42 43 44 45 46 47 48 49 50
000
ASUS43 KMPX 180801
RWRMN
WEATHER ROUNDUP FOR MINNESOTA
NATIONAL WEATHER SERVICE TWIN CITIES/CHANHASSEN MN
300 AM CDT SAT APR 18 2015


NOTE: "FAIR" INDICATES FEW OR NO CLOUDS BELOW 12,000 FEET WITH NO
SIGNIFICANT WEATHER AND/OR OBSTRUCTIONS TO VISIBILITY. N/A MEANS
CURRENT SKY AND/OR WEATHER CONDITIONS ARE NOT AVAILABLE.

MNZ060>063-068>070-180900-
   Twin Cities Metro

CITY           SKY/WX    TMP DP  RH WIND       PRES   REMARKS
TWIN CITIES    PTCLDY    51  35  54 CALM      30.06R
ST PAUL        CLEAR     49  35  58 CALM      30.07R
CRYSTAL        CLEAR     48  34  58 CALM      30.06R
BLAINE         CLEAR     45  36  70 CALM      30.06S
LAKEVILLE      CLEAR     43  34  70 CALM      30.04F
EDEN PRAIRIE   PTCLDY    49  30  48 CALM      30.04F
SOUTH ST PAUL  CLEAR     47  34  59 CALM      30.05S
LAKE ELMO      FAIR      37  34  87 CALM      30.07R
$$
MNZ001>005-007-008-013>017-022>024-027-028-180900-
   Northwest Minnesota

CITY           SKY/WX    TMP DP  RH WIND       PRES   REMARKS
BEMIDJI        CLEAR     37  28  70 E5        30.14S
HALLOCK        CLEAR     39  28  65 E10       30.17S
ROSEAU         CLEAR     30  27  86 E7        30.19F WCI  23
WARROAD        CLEAR     37  32  81 NE9       30.20F
THIEF RVR FALL CLEAR     39  28  65 E10       30.16R
CROOKSTON      CLEAR     41  28  60 E6        30.16R
FOSSTON        CLEAR     37  25  60 E5        30.14S
DETROIT LAKES  CLEAR     46  28  49 E3        30.13R
MOORHEAD       FAIR      41  21  45 N8        30.12S
PARK RAPIDS    CLEAR     47  26  44 NE7       30.12R
MAHNOMEN       FAIR      40  27  59 E6        30.13R
$$
MNZ006-009>011-018-025>026-180900-
   North Central Minnesota

CITY           SKY/WX    TMP DP  RH WIND       PRES   REMARKS
BAUDETTE       CLEAR     37  29  72 NE8       30.20S
FLAG ISLAND    CLEAR     36  30  80 CALM      30.21R
INTL FALLS     CLEAR     29  25  85 CALM      30.20S
WASKISH        CLEAR     37  30  75 NE8       30.17S
BIG FORK       CLEAR     39  30  70 NE8       30.16S
LONGVILLE      CLEAR     41  28  60 NE3       30.13R
GRAND RAPIDS   CLEAR     43  27  52 NE5       30.15R
ORR            CLEAR     36  28  75 CALM      30.16F
COOK           CLEAR     37  30  75 NE5       30.17F
WALKER         FAIR      45  30  55 NE7       30.13S
$$
MNZ012-019>021-037-180900-
   Northeast Minnesota

CITY           SKY/WX    TMP DP  RH WIND       PRES   REMARKS
DULUTH         CLEAR     45  29  53 NE9       30.14R
ELY            CLEAR     39  30  70 E3        30.19R
HIBBING        CLEAR     42  29  59 NE8       30.15R
EVELETH        CLEAR     41  30  65 NE12      30.15S
DULUTH HARBOR  CLEAR     41  36  81 E13       30.16R
TWO HARBORS    CLEAR     46  34  61 NE5       30.14R
SILVER BAY     CLEAR     43  30  61 N5        30.14R
GRAND MARAIS     N/A     40  31  70 NE5       30.18R
G MARAIS ARPRT CLEAR     34  27  75 N17G28    30.15S WCI  23
$$
MNZ029>031-032-039>041-046>048-054>057-064-180900-
   West Central Minnesota

CITY           SKY/WX    TMP DP  RH WIND       PRES   REMARKS
FERGUS FALLS   CLEAR     50  21  32 E10       30.10S
WHEATON        CLEAR     45  25  45 N5        30.09F
MORRIS         CLEAR     46  27  46 NE12      30.06F
ALEXANDRIA     CLEAR     49  25  39 NE8       30.11R
ELBOW LAKE     FAIR      52  28  38 E8        30.08S
WADENA         CLEAR     45  23  42 NE8       30.11S
GLENWOOD       CLEAR     46  28  49 NE9       30.09F
APPLETON       PTCLDY    39  27  60 NE3       30.05F
BENSON         CLEAR     34  28  80 CALM      30.07S
ORTONVILLE     PTCLDY    43  30  61 N9        30.05F
MADISON        PTCLDY    39  23  52 CALM      30.05F
WILLMAR        FAIR      46  32  57 N5        30.08S
$$
MNZ033>034-036-042>043-049>051-058-059-180900-
   Central Minnesota

CITY           SKY/WX    TMP DP  RH WIND       PRES   REMARKS
ST CLOUD       PTCLDY    52  28  39 NE7       30.08R
SAUK CENTRE    FAIR      51  28  39 NE7       30.09S
PAYNESVILLE    PTCLDY    44  28  52 N8        30.09S
AITKIN         CLEAR     48  25  40 CALM      30.12R
PINE RIVER     CLEAR     46  28  49 NE3       30.16R
BRAINERD       CLEAR     48  26  42 NE7       30.13R
STAPLES        CLEAR     46  23  39 NE5       30.11F
LONG PRAIRIE   FAIR      45  28  53 N6        30.10S
LITTLE FALLS   CLEAR     46  27  46 CALM      30.09S
LITCHFIELD     PTCLDY    50  27  40 N3        30.08S
BUFFALO        PTCLDY    43  32  64 CALM      30.08R
MAPLE LAKE     PTCLDY    51  32  48 N8        30.07S
$$
MNZ037-044-045-052-053-180900-
   East Central Minnesota

CITY           SKY/WX    TMP DP  RH WIND       PRES   REMARKS
PRINCETON      PTCLDY    48  28  46 CALM      30.09R
MORA           CLEAR     50  27  40 N3        30.11R
CAMBRIDGE      CLEAR     54  34  47 CALM      30.07R
RUSH CITY      PTCLDY    49  28  44 NE6       30.09R
MOOSE LAKE     CLEAR     46  25  42 CALM      30.11R
HINCKLEY       FAIR      48  28  46 NE6       30.11R
CLOQUET        CLEAR     48  27  43 NE9       30.13S
MCGREGOR       CLEAR     45  30  57 NE3       30.14R
$$
MNZ071>073-080-081-089-090-097-098-180900-
   Southwest Minnesota

CITY           SKY/WX    TMP DP  RH WIND       PRES   REMARKS
MONTEVIDEO     PTCLDY    45  27  49 NE6       30.06F
GRANITE FALLS  PTCLDY    44  23  42 N3        30.05F
CANBY          PTCLDY    40  26  56 W3        30.05F
MARSHALL       PTCLDY    43  19  39 W7        30.04F
REDWOOD FALLS  PTCLDY    50  24  36 N6        30.03F
OLIVIA         CLEAR     41  19  42 N8        30.03F
PIPESTONE      PTCLDY    52  16  24 E6        30.04S
WORTHINGTON    PTCLDY    46  23  39 N5        30.05F
JACKSON        MOCLDY    52  27  37 NE8       30.05S
TRACY          PTCLDY    50  23  34 CALM      30.05S
SLAYTON        MOCLDY    50  21  32 CALM      30.06S
$$
MNZ065>067-074>077-082>085-091>093-180900-
   South Central Minnesota

CITY           SKY/WX    TMP DP  RH WIND       PRES   REMARKS
MANKATO        CLEAR     55  32  41 CALM      30.04S
NEW ULM        PTCLDY    55  21  26 NE3       30.04S
ST JAMES       PTCLDY    50  30  46 CALM      30.06R
FAIRMONT       MOCLDY    52  27  37 N6        30.04R
GLENCOE        CLEAR     44  32  63 N6        30.04F
FARIBAULT      CLEAR     45  39  81 CALM      30.04F
OWATONNA       CLEAR     45  37  76 CALM      30.05S
ALBERT LEA     PTCLDY    48  41  76 NE5       30.04S
$$
MNZ078>079-086>088-094>096-180900-
   Southeast Minnesota

CITY           SKY/WX    TMP DP  RH WIND       PRES   REMARKS
ROCHESTER      CLEAR     56  36  47 CALM      30.07R
RED WING       PTCLDY    43  36  75 CALM      30.04F
STANTON        CLEAR     41  34  76 CALM      30.03F
DODGE CENTER   PTCLDY    55  32  41 NE5       30.05S
WINONA         CLEAR     48  45  87 CALM      30.04F
AUSTIN         PTCLDY    50  39  66 NE5       30.04S
PRESTON        PTCLDY    55  38  54 CALM      30.06R
$$
ABBREVIATIONS USED IN REMARKS
   TC - TEMPERATURES IN CELSIUS
  WCI - WIND CHILL INDEX
   HX - HEAT INDEX
  VSB - VISIBILITY
$$


USA.gov is the U.S. government's official web portal to all federal, state and local government web resources and services.